Location: ??????????
(42.1626°N, 44.1160°E)
Time: 16:54:47
(UTC+00:00)

Cosmos 1844 - Pass Details

Date: 27 June 2021
Orbit: 823 x 867 km, 70.9° (Epoch: 01 August)

Event Time Altitude Azimuth Distance (km) Brightness Sun altitude
Rises 17:05:08 0° 332° (NNW) 3,375 8.2 -4.1°
Reaches altitude 10° 17:07:35 10° 330° (NNW) 2,442 7.5 -4.4°
Maximum altitude 17:13:07 65° 250° (WSW) 916 4.1 -5.2°
Drops below altitude 10° 17:18:40 10° 169° (S) 2,452 5.7 -6.0°
Enters shadow 17:21:04 - 167° (SSE) 3,362 6.3 -6.4°
